1496433600.91,9977,22.81,74184.8,0.87,-30.67,-30.89,0,*72
1496433602.15,9978,22.81,74180.0,0.87,-30.89,-31.05,0,*78
1496433603.38,9979,22.81,74182.5,0.87,-30.67,-30.83,0,*76
1496433604.66,9980,22.81,74180.5,0.87,-30.73,-30.89,0,*7F
1496433605.94,9981,22.81,74180.5,0.87,-30.73,-30.89,0,*7E
1496433607.18,9982,22.81,74180.3,0.87,-30.55,-30.67,0,*79
1496433608.43,9983,22.81,74182.5,0.87,-30.73,-31.01,0,*7D
1496433609.63,9984,22.81,74180.5,0.89,-30.67,-30.83,0,*7A
1496433610.88,9985,22.81,74180.0,0.91,-30.45,-30.77,0,*79
1496433612.13,9986,22.81,74182.0,0.87,-30.73,-31.05,0,*7C
1496433613.32,9987,22.81,74180.8,0.89,-30.67,-31.01,0,*72
1496433614.57,9988,22.81,74178.0,0.87,-30.73,-31.17,0,*71
1496433615.81,9989,22.81,74182.0,0.89,-30.77,-30.95,0,*71
1496433617.05,9990,22.81,74178.8,0.89,-30.77,-30.95,0,*79
1496433618.3,9991,22.81,74178.0,0.89,-30.77,-30.95,0,*78
1496433619.49,9992,22.81,74178.0,0.89,-30.67,-31.01,0,*76
1496433620.72,9993,22.81,74180.3,0.89,-30.67,-31.11,0,*76
1496433621.96,9994,22.81,74178.5,0.89,-30.77,-31.11,0,*70
1496433623.21,9995,22.81,74178.3,0.89,-30.77,-31.11,0,*71
1496433624.45,9996,22.81,74178.3,0.89,-30.77,-30.95,0,*7F
1496433625.64,9997,22.81,74182.3,0.89,-31.01,-31.33,0,*73
1496433626.89,9998,22.81,74178.3,0.91,-31.05,-31.23,0,*70
1496433628.14,9999,22.81,74182.8,0.91,-30.95,-31.29,0,*73
1496433629.39,10000,22.81,74178.0,0.91,-30.73,-31.05,0,*44
1496433630.59,10001,22.81,74178.5,0.89,-30.83,-31.01,0,*47
1496433631.82,10002,22.81,74182.5,0.89,-31.11,-31.33,0,*4F
1496433633.07,10003,22.81,74182.0,0.87,-31.17,-31.39,0,*4C
1496433634.3,10004,22.81,74180.0,0.89,-31.11,-31.45,0,*48
1496433635.53,10005,22.81,74178.8,0.89,-30.95,-31.01,0,*44
1496433636.75,10006,22.81,74178.3,0.89,-30.67,-30.95,0,*46
1496433637.98,10007,22.81,74182.5,0.89,-30.77,-31.01,0,*4A
1496433639.21,10008,22.81,74176.0,0.89,-30.83,-31.11,0,*4F
1496433640.43,10009,22.81,74180.5,0.89,-30.95,-31.17,0,*4F
1496433641.69,10010,22.81,74180.3,0.87,-30.89,-31.17,0,*44
1496433642.94,10011,22.81,74182.5,0.89,-30.77,-30.95,0,*41
1496433644.15,10012,22.81,74180.5,0.89,-30.67,-30.83,0,*44
1496433645.35,10013,22.81,74180.5,0.89,-30.67,-31.01,0,*4E
1496433646.55,10014,22.81,74180.0,0.89,-30.83,-31.17,0,*44
1496433647.81,10015,22.81,74178.5,0.91,-30.73,-31.05,0,*40
1496433649.06,10016,22.81,74180.5,0.91,-30.77,-31.05,0,*47
1496433650.34,10017,22.81,74180.3,0.91,-30.61,-30.89,0,*44
1496433651.62,10018,22.81,74180.5,0.91,-30.61,-30.89,0,*4B
1496433652.88,10019,22.81,74176.3,0.91,-30.73,-31.05,0,*4C
1496433654.11,10020,22.81,74180.0,0.89,-30.77,-31.17,0,*48
1496433655.33,10021,22.81,74176.8,0.89,-30.95,-31.17,0,*45
1496433656.61,10022,22.81,74180.0,0.91,-30.73,-30.95,0,*4C
1496433657.9,10023,22.81,74180.0,0.91,-30.73,-30.89,0,*40
1496433659.12,10024,22.81,74178.0,0.89,-31.01,-31.23,0,*4B
1496433660.37,10025,22.81,74178.8,0.91,-30.89,-31.05,0,*46
1496433661.6,10026,22.81,74176.5,0.89,-30.95,-31.17,0,*42
1496433662.88,10027,22.81,74182.5,0.91,-30.73,-30.95,0,*49
1496433664.1,10028,22.81,74176.3,0.89,-30.77,-31.01,0,*47
1496433665.36,10029,22.81,74182.3,0.91,-30.77,-31.05,0,*4B
1496433666.64,10030,22.81,74182.5,0.91,-30.73,-30.95,0,*4F
1496433667.91,10031,22.81,74178.5,0.91,-30.73,-30.95,0,*4E
1496433669.2,10032,22.81,74178.5,0.91,-30.61,-30.77,0,*42
1496433670.48,10033,22.81,74182.3,0.91,-30.61,-30.77,0,*43
1496433671.77,10034,22.81,74178.5,0.91,-30.77,-31.23,0,*43
1496433673.05,10035,22.81,74178.3,0.91,-30.61,-30.77,0,*45
1496433674.32,10036,22.81,74182.3,0.91,-30.39,-30.55,0,*4B
1496433675.57,10037,22.81,74178.0,0.93,-30.55,-30.73,0,*46
1496433676.86,10038,22.81,74180.0,0.91,-30.61,-30.77,0,*48
1496433678.13,10039,22.81,74182.5,0.91,-30.39,-30.55,0,*44
1496433679.38,10040,22.81,74178.8,0.93,-30.55,-30.77,0,*42
1496433680.67,10041,22.81,74178.3,0.91,-30.95,-31.23,0,*4D
1496433681.92,10042,22.81,74182.3,0.91,-30.77,-31.05,0,*46
1496433683.18,10043,22.81,74180.8,0.93,-30.73,-30.77,0,*45
1496433684.43,10044,22.81,74178.8,0.93,-30.73,-30.95,0,*4E
1496433685.66,10045,22.81,74182.3,0.93,-30.73,-31.05,0,*47
1496433686.91,10046,22.81,74176.3,0.93,-30.73,-30.95,0,*4C
1496433688.16,10047,22.81,74178.8,0.93,-30.73,-30.95,0,*4D
1496433689.44,10048,22.81,74178.0,0.91,-30.55,-30.77,0,*48
1496433690.7,10049,22.81,74178.8,0.93,-30.73,-30.89,0,*4E
1496433691.98,10050,22.81,74178.8,0.91,-30.73,-30.95,0,*49
1496433693.25,10051,22.81,74180.3,0.91,-30.73,-30.95,0,*48
1496433694.51,10052,22.75,74178.8,0.91,-30.73,-31.05,0,*43
1496433695.79,10053,22.81,74178.3,0.91,-30.61,-30.77,0,*45
1496433697.07,10054,22.81,74178.8,0.91,-30.39,-30.73,0,*4B
1496433698.3,10055,22.81,74180.0,0.93,-30.45,-30.61,0,*40
1496433699.52,10056,22.81,74180.5,0.93,-30.45,-30.73,0,*40
1496433700.79,10057,22.81,74178.0,0.91,-30.39,-30.55,0,*4C
1496433702.0,10058,22.81,74176.3,0.93,-30.33,-30.45,0,*4A
1496433703.21,10059,22.81,74182.3,0.93,-30.45,-30.55,0,*4B
1496433704.47,10060,22.81,74180.3,0.93,-30.73,-30.89,0,*45
1496433705.73,10061,22.81,74182.3,0.91,-30.45,-30.61,0,*45
1496433706.98,10062,22.81,74182.5,0.93,-30.55,-30.77,0,*42
1496433708.23,10063,22.75,74176.3,0.93,-30.55,-30.73,0,*47
1496433709.49,10064,22.81,74182.3,0.93,-30.61,-30.77,0,*43
1496433710.72,10065,22.81,74178.8,0.93,-30.45,-30.61,0,*43
1496433711.97,10066,22.81,74182.3,0.93,-30.55,-30.89,0,*47
1496433713.23,10067,22.81,74182.3,0.93,-30.73,-30.89,0,*42
1496433714.48,10068,22.81,74182.0,0.93,-30.55,-30.77,0,*48
1496433715.71,10069,22.75,74178.3,0.93,-30.77,-31.05,0,*4D
1496433716.97,10070,22.81,74182.8,0.93,-30.73,-30.77,0,*45
1496433718.23,10071,22.81,74180.5,0.93,-30.73,-30.89,0,*45
1496433719.49,10072,22.81,74180.8,0.97,-30.51,-30.73,0,*47
1496433720.74,10073,22.81,74182.5,0.93,-30.61,-30.89,0,*44
1496433721.98,10074,22.81,74180.3,0.97,-30.67,-30.89,0,*41
1496433723.21,10075,22.81,74182.0,0.97,-30.51,-30.67,0,*45
1496433724.46,10076,22.81,74180.8,0.97,-30.55,-30.73,0,*47
1496433725.69,10077,22.81,74182.3,0.97,-30.51,-30.67,0,*47
1496433726.95,10078,22.81,74180.3,0.97,-30.55,-30.89,0,*4C
1496433728.16,10079,22.81,74180.0,0.97,-30.67,-30.83,0,*46
1496433729.41,10080,22.81,74180.8,0.97,-30.55,-30.89,0,*4B
1496433730.66,10081,22.81,74180.5,0.97,-30.55,-30.89,0,*4A
1496433731.91,10082,22.81,74180.0,0.97,-30.55,-30.89,0,*49
1496433733.17,10083,22.81,74182.5,0.99,-30.73,-31.01,0,*43
1496433734.42,10084,22.81,74180.8,0.99,-31.01,-31.23,0,*40
1496433735.62,10085,22.75,74176.8,0.97,-31.01,-31.17,0,*48
1496433736.85,10086,22.81,74182.0,0.97,-30.55,-30.83,0,*47
1496433738.08,10087,22.75,74176.5,0.97,-30.55,-30.83,0,*46
1496433739.31,10088,22.81,74180.3,0.97,-30.89,-31.05,0,*47
1496433740.51,10089,22.81,74180.3,0.97,-30.83,-31.05,0,*4C
1496433741.75,10090,22.81,74180.5,0.97,-30.83,-31.23,0,*40
1496433742.95,10091,22.81,74182.5,0.97,-30.83,-31.17,0,*46
1496433744.18,10092,22.81,74180.8,0.97,-30.89,-31.33,0,*49
1496433745.38,10093,22.81,74182.5,0.97,-31.01,-31.33,0,*49
1496433746.63,10094,22.81,74182.0,0.99,-30.89,-31.33,0,*41
1496433747.84,10095,22.81,74182.3,0.97,-30.83,-31.17,0,*42
1496433749.07,10096,22.81,74180.5,0.97,-30.89,-31.17,0,*4B
1496433750.3,10097,22.81,74184.0,0.97,-30.67,-30.89,0,*4C
1496433751.51,10098,22.81,74182.3,0.97,-30.83,-31.17,0,*4F
1496433752.72,10099,22.81,74182.5,0.97,-30.83,-31.17,0,*4E
1496433753.96,10100,22.81,74180.8,0.97,-30.67,-30.89,0,*43
1496433755.22,10101,22.81,74180.0,0.99,-30.67,-30.89,0,*4C
1496433756.42,10102,22.75,74182.0,0.97,-30.67,-31.05,0,*44
1496433757.71,10103,22.81,74180.8,0.99,-30.89,-31.23,0,*4F
1496433758.94,10104,22.81,74180.8,0.99,-30.83,-31.17,0,*45
1496433760.22,10105,22.75,74180.5,0.99,-30.51,-30.89,0,*4D
1496433761.48,10106,22.81,74180.5,0.99,-30.73,-31.01,0,*4F
1496433762.73,10107,22.81,74182.3,0.99,-30.73,-31.01,0,*4E
1496433763.99,10108,22.81,74182.0,0.99,-30.67,-30.89,0,*45
1496433765.26,10109,22.81,74178.0,0.99,-30.67,-30.89,0,*44
1496433766.49,10110,22.75,74178.8,0.99,-30.67,-31.01,0,*4D
1496433767.77,10111,22.75,74176.5,0.99,-30.55,-30.89,0,*4C
1496433769.0,10112,22.81,74180.3,1.01,-30.51,-30.83,0,*71
1496433770.26,10113,22.75,74178.8,0.99,-30.83,-31.23,0,*44
1496433771.5,10114,22.75,74178.8,0.99,-30.83,-31.17,0,*44
1496433772.73,10115,22.81,74182.8,1.01,-30.83,-31.11,0,*73
1496433773.96,10116,22.81,74178.3,1.01,-30.77,-31.17,0,*7D
1496433775.16,10117,22.81,74178.5,1.01,-31.01,-31.17,0,*7C
1496433776.4,10118,22.75,74176.5,1.01,-30.95,-31.17,0,*7F
1496433777.63,10119,22.81,74180.0,1.01,-30.95,-31.29,0,*73
1496433778.84,10120,22.75,74180.3,1.01,-30.83,-31.17,0,*73
1496433780.05,10121,22.75,74182.3,1.01,-30.83,-31.17,0,*72
1496433781.28,10122,22.81,74182.3,1.01,-30.95,-31.17,0,*76
1496433782.54,10123,22.81,74182.8,1.01,-30.95,-31.11,0,*71
1496433783.77,10124,22.81,74180.8,1.01,-30.77,-31.17,0,*7C
1496433785.0,10125,22.75,74176.5,1.03,-31.01,-31.17,0,*7F
1496433786.22,10126,22.75,74180.5,1.03,-31.01,-31.29,0,*71
1496433787.42,10127,22.75,74178.5,1.01,-31.01,-31.17,0,*7F
1496433788.66,10128,22.81,74180.0,1.03,-30.83,-31.29,0,*74
1496433789.86,10129,22.75,74182.5,1.01,-31.01,-31.29,0,*7C
1496433791.09,10130,22.75,74178.8,1.01,-31.11,-31.33,0,*7E
1496433792.35,10131,22.81,74180.3,1.03,-31.11,-31.33,0,*7D
1496433793.58,10132,22.81,74182.8,1.01,-31.17,-31.51,0,*7E
1496433794.79,10133,22.75,74180.5,1.01,-31.29,-31.45,0,*77
1496433796.04,10134,22.75,74180.3,1.03,-31.33,-31.51,0,*7C
1496433797.29,10135,22.81,74182.8,1.03,-31.29,-31.51,0,*76
1496433798.55,10136,22.81,74182.3,1.03,-31.33,-31.51,0,*7E
1496433799.78,10137,22.75,74180.3,1.01,-31.33,-31.51,0,*7D
1496433801.03,10138,22.75,74180.5,1.01,-31.51,-31.85,0,*7F
1496433802.26,10139,22.81,74182.0,1.01,-31.45,-31.57,0,*74
1496433803.47,10140,22.75,74180.3,1.01,-31.17,-31.45,0,*7E
1496433804.72,10141,22.75,74178.5,1.03,-31.29,-31.51,0,*75
1496433805.97,10142,22.75,74178.3,1.03,-31.33,-31.51,0,*7D
1496433807.22,10143,22.75,74178.8,1.01,-31.51,-31.73,0,*7A
1496433808.47,10144,22.75,74178.8,1.03,-31.45,-31.57,0,*7C
1496433809.68,10145,22.75,74178.3,1.01,-31.33,-31.45,0,*7D
1496433810.92,10146,22.75,74178.0,1.03,-31.29,-31.45,0,*77
1496433812.14,10147,22.75,74178.3,1.01,-31.67,-31.85,0,*72
1496433813.42,10148,22.75,74178.5,1.03,-31.51,-31.57,0,*75
1496433814.65,10149,22.75,74176.3,1.01,-31.11,-31.29,0,*7B
1496433815.85,10150,22.81,74178.8,1.01,-31.01,-31.29,0,*72
1496433817.08,10151,22.81,74182.0,1.03,-31.01,-31.29,0,*71
1496433818.34,10152,22.81,74182.8,1.03,-31.11,-31.29,0,*73
1496433819.57,10153,22.75,74176.5,1.01,-31.17,-31.51,0,*79
1496433820.79,10154,22.75,74176.3,1.01,-31.33,-31.57,0,*7E
1496433822.05,10155,22.81,74178.8,1.03,-31.45,-31.57,0,*7C
1496433823.28,10156,22.75,74176.0,1.01,-31.33,-31.51,0,*7A
1496433824.48,10157,22.75,74178.5,1.01,-31.45,-31.67,0,*7F
1496433825.76,10158,22.75,74176.3,1.03,-31.57,-31.73,0,*74
1496433826.98,10159,22.75,74176.0,1.01,-31.51,-31.67,0,*74
1496433828.2,10160,22.75,74176.8,1.01,-31.51,-31.67,0,*7E
1496433829.43,10161,22.75,74176.5,1.01,-31.45,-31.57,0,*79
1496433830.67,10162,22.75,74176.3,1.05,-31.45,-31.61,0,*7B
1496433831.94,10163,22.75,74176.3,1.03,-31.57,-31.73,0,*7C
1496433833.2,10164,22.75,74178.5,1.01,-31.57,-31.73,0,*79
1496433834.47,10165,22.75,74176.3,0.99,-31.61,-31.73,0,*4D
1496433835.75,10166,22.75,74176.8,0.99,-31.39,-31.51,0,*43
1496433837.01,10167,22.75,74178.3,0.99,-31.23,-31.33,0,*4D
1496433838.29,10168,22.75,74178.5,0.99,-31.23,-31.39,0,*48
1496433839.53,10169,22.81,74180.3,1.01,-31.45,-31.51,0,*77
1496433840.81,10170,22.75,74178.3,0.99,-31.39,-31.51,0,*44
1496433842.03,10171,22.75,74176.5,1.01,-31.45,-31.57,0,*78
1496433843.26,10172,22.75,74176.3,1.01,-31.51,-31.67,0,*7D
1496433844.46,10173,22.75,74176.3,1.01,-31.45,-31.67,0,*79
1496433845.69,10174,22.75,74176.5,1.01,-31.33,-31.51,0,*7A
1496433846.92,10175,22.75,74176.5,1.01,-31.29,-31.57,0,*76
1496433848.13,10176,22.75,74178.0,1.01,-31.29,-31.45,0,*76
1496433849.36,10177,22.75,74180.5,1.01,-31.11,-31.29,0,*76
1496433850.59,10178,22.75,74176.5,0.99,-31.17,-31.33,0,*44
1496433851.85,10179,22.75,74178.8,0.99,-31.17,-31.39,0,*4F
1496433853.1,10180,22.75,74180.3,0.99,-31.33,-31.51,0,*41
1496433854.31,10181,22.75,74180.0,1.01,-31.29,-31.45,0,*7E
1496433855.54,10182,22.75,74178.5,1.01,-31.45,-31.51,0,*72
1496433856.75,10183,22.75,74176.5,1.01,-31.29,-31.45,0,*7C
1496433857.96,10184,22.75,74178.5,1.01,-31.33,-31.45,0,*70
1496433859.17,10185,22.75,74178.8,1.01,-31.29,-31.45,0,*7A
1496433860.37,10186,22.75,74178.3,1.01,-31.17,-31.33,0,*75
1496433861.63,10187,22.81,74180.5,1.03,-31.33,-31.51,0,*74
1496433862.86,10188,22.75,74178.8,1.01,-31.33,-31.51,0,*79
1496433864.09,10189,22.75,74182.3,1.01,-31.45,-31.51,0,*79
1496433865.33,10190,22.75,74178.8,1.01,-31.11,-31.29,0,*7F
1496433866.53,10191,22.75,74180.5,1.01,-31.01,-31.29,0,*7F
1496433867.79,10192,22.75,74178.5,1.03,-31.11,-31.29,0,*7F
1496433868.99,10193,22.75,74184.0,1.01,-31.17,-31.33,0,*71
1496433870.19,10194,22.75,74180.5,1.01,-31.01,-31.29,0,*7A
1496433871.4,10195,22.75,74178.3,1.01,-31.01,-31.17,0,*76
1496433872.65,10196,22.75,74178.8,1.03,-30.95,-31.17,0,*7B
1496433873.86,10197,22.75,74182.8,1.01,-31.01,-31.17,0,*74
1496433875.11,10198,22.75,74178.3,1.01,-30.77,-31.11,0,*7D
1496433876.32,10199,22.75,74180.3,1.01,-31.17,-31.45,0,*7A
1496433877.57,10200,22.75,74182.8,1.03,-31.51,-31.67,0,*79
1496433878.8,10201,22.75,74182.8,1.01,-31.45,-31.57,0,*7C
1496433880.03,10202,22.75,74178.0,1.01,-31.45,-31.57,0,*7F
1496433881.26,10203,22.75,74176.8,1.03,-31.29,-31.45,0,*75
1496433882.46,10204,22.75,74180.0,1.01,-31.01,-31.29,0,*70
1496433883.67,10205,22.75,74180.3,1.01,-31.29,-31.33,0,*70
1496433884.87,10206,22.75,74180.0,1.01,-31.17,-31.33,0,*7E
1496433886.12,10207,22.75,74180.8,1.03,-31.33,-31.51,0,*7F
1496433887.38,10208,22.75,74176.8,1.03,-31.11,-31.29,0,*7F
1496433888.63,10209,22.75,74176.5,1.03,-31.33,-31.51,0,*71
1496433889.86,10210,22.75,74182.0,1.01,-31.51,-31.67,0,*7A
1496433891.11,10211,22.75,74178.8,1.01,-31.51,-31.57,0,*78
1496433892.33,10212,22.75,74182.0,1.01,-31.51,-31.67,0,*78
1496433893.56,10213,22.75,74180.3,1.01,-31.67,-31.85,0,*70
1496433894.81,10214,22.75,74180.3,1.01,-31.57,-31.85,0,*74
1496433896.04,10215,22.75,74176.3,1.01,-31.67,-31.91,0,*73
1496433897.29,10216,22.75,74180.8,1.01,-31.51,-31.85,0,*70
1496433898.54,10217,22.75,74182.5,1.03,-31.57,-31.67,0,*79
1496433899.77,10218,22.75,74178.8,1.01,-31.57,-31.67,0,*74
1496433901.05,10219,22.75,74178.8,0.99,-31.57,-31.61,0,*43
1496433902.3,10220,22.75,74182.0,0.99,-31.33,-31.57,0,*4E
1496433903.58,10221,22.75,74180.3,0.99,-31.39,-31.51,0,*43
1496433904.81,10222,22.75,74180.3,1.01,-31.33,-31.51,0,*7A
1496433906.01,10223,22.75,74180.5,1.01,-31.01,-31.17,0,*78
1496433907.29,10224,22.75,74178.0,0.99,-30.89,-31.23,0,*49
1496433908.52,10225,22.75,74178.8,0.99,-31.17,-31.33,0,*4F
1496433909.75,10226,22.75,74176.5,0.99,-31.17,-31.33,0,*4C
1496433911.03,10227,22.75,74178.8,0.99,-31.23,-31.39,0,*40
1496433912.27,10228,22.75,74178.5,1.01,-31.11,-31.29,0,*7F
1496433913.47,10229,22.75,74176.0,1.01,-31.17,-31.29,0,*78
1496433914.67,10230,22.75,74180.3,1.01,-31.17,-31.33,0,*7B
1496433915.93,10231,22.75,74178.0,1.03,-31.29,-31.51,0,*71
1496433917.13,10232,22.75,74178.3,1.01,-31.29,-31.33,0,*74
1496433918.33,10233,22.75,74180.5,1.01,-31.17,-31.33,0,*78
1496433919.56,10234,22.75,74178.3,1.01,-31.33,-31.51,0,*7D
1496433920.79,10235,22.75,74178.5,1.01,-31.45,-31.57,0,*7B
1496433922.04,10236,22.75,74178.0,1.01,-31.51,-31.57,0,*7D
1496433923.27,10237,22.75,74178.5,1.01,-31.45,-31.57,0,*79
1496433924.49,10238,22.75,74178.0,1.01,-31.51,-31.67,0,*70
1496433925.74,10239,22.75,74180.3,1.01,-31.51,-31.57,0,*72
1496433926.96,10240,22.75,74174.8,1.01,-31.51,-31.67,0,*7F
1496433928.19,10241,22.75,74176.8,1.01,-31.45,-31.73,0,*7E
1496433929.47,10242,22.75,74174.5,0.99,-31.51,-31.61,0,*4B
1496433930.7,10243,22.75,74178.0,1.01,-31.57,-31.67,0,*7A
1496433931.98,10244,22.75,74178.0,0.99,-31.51,-31.61,0,*4D
1496433933.25,10245,22.75,74176.3,0.99,-31.39,-31.73,0,*41
1496433934.53,10246,22.75,74172.0,0.99,-31.39,-31.61,0,*41
1496433935.79,10247,22.75,74172.8,0.99,-31.33,-31.51,0,*49
1496433937.04,10248,22.75,74174.5,0.99,-31.17,-31.39,0,*4E
1496433938.32,10249,22.75,74174.5,0.99,-31.39,-31.51,0,*4D
1496433939.53,10250,22.75,74176.3,1.01,-31.29,-31.45,0,*71
1496433940.73,10251,22.75,74172.8,1.01,-31.17,-31.33,0,*7C
1496433942.01,10252,22.75,74176.3,0.99,-31.23,-31.39,0,*42
1496433943.25,10253,22.75,74176.8,1.01,-31.29,-31.51,0,*77
1496433944.45,10254,22.75,74178.0,1.01,-31.17,-31.45,0,*78
1496433945.68,10255,22.75,74174.5,0.97,-31.33,-31.57,0,*42
1496433946.92,10256,22.75,74174.8,0.97,-31.39,-31.57,0,*4B
1496433948.15,10257,22.75,74176.8,1.01,-31.51,-31.67,0,*79
1496433949.38,10258,22.75,74178.3,1.01,-31.29,-31.51,0,*7C
1496433950.65,10259,22.75,74178.5,0.99,-31.39,-31.51,0,*4C
1496433951.94,10260,22.75,74178.0,0.99,-31.23,-31.51,0,*4D
1496433953.17,10261,22.75,74178.8,0.97,-31.05,-31.23,0,*43
1496433954.42,10262,22.75,74178.0,0.99,-31.01,-31.23,0,*4A
1496433955.65,10263,22.75,74176.0,0.99,-31.17,-31.33,0,*4D
1496433956.9,10264,22.75,74178.8,0.99,-31.17,-31.39,0,*40
1496433958.15,10265,22.75,74180.3,0.99,-31.39,-31.79,0,*49
1496433959.41,10266,22.75,74176.3,0.97,-31.57,-31.91,0,*4A
1496433960.68,10267,22.75,74182.3,0.99,-31.51,-31.73,0,*4F
1496433961.94,10268,22.75,74178.5,0.97,-31.61,-31.91,0,*41
1496433963.16,10269,22.75,74178.3,0.97,-31.73,-31.79,0,*45
1496433964.39,10270,22.75,74180.3,0.97,-31.57,-31.79,0,*4B
1496433965.64,10271,22.75,74176.8,0.99,-31.51,-31.79,0,*42
1496433966.87,10272,22.75,74178.3,0.97,-31.61,-31.79,0,*4C
1496433968.1,10273,22.75,74174.5,0.97,-31.61,-31.79,0,*4D
1496433969.36,10274,22.75,74178.0,0.97,-31.61,-32.07,0,*40
1496433970.58,10275,22.75,74178.8,0.97,-31.91,-32.13,0,*4B
1496433971.84,10276,22.75,74176.3,0.97,-31.73,-32.07,0,*41
1496433973.1,10277,22.75,74178.3,0.97,-31.61,-31.91,0,*4F
1496433974.38,10278,22.75,74178.8,0.91,-31.57,-31.95,0,*47
1496433975.61,10279,22.75,74176.5,0.97,-31.51,-31.79,0,*44
1496433976.83,10280,22.75,74182.3,0.97,-31.57,-31.79,0,*44
1496433978.03,10281,22.75,74182.3,0.93,-31.67,-32.01,0,*4E
1496433979.26,10282,22.75,74176.5,0.91,-31.67,-32.01,0,*4F
1496433980.48,10283,22.75,74178.0,0.91,-31.79,-32.01,0,*41
1496433981.74,10284,22.75,74178.3,0.93,-31.61,-31.95,0,*43
1496433982.99,10285,22.75,74182.3,0.91,-31.57,-31.79,0,*47
1496433984.25,10286,22.75,74180.8,0.93,-31.57,-31.85,0,*45
1496433985.48,10287,22.75,74176.3,0.93,-31.67,-31.95,0,*46
1496433986.73,10288,22.75,74176.5,0.91,-31.67,-31.95,0,*4B
1496433987.98,10289,22.75,74182.0,0.91,-31.61,-32.01,0,*42
1496433989.24,10290,22.75,74180.3,0.91,-31.67,-31.95,0,*42
1496433990.44,10291,22.75,74178.8,0.93,-31.67,-32.01,0,*4F
1496433991.67,10292,22.75,74178.8,0.91,-31.45,-31.79,0,*42
1496433992.92,10293,22.75,74178.8,0.91,-31.67,-31.95,0,*41
1496433994.2,10294,22.75,74176.5,0.91,-31.57,-31.85,0,*44
1496433995.46,10295,22.75,74176.5,0.91,-31.57,-31.79,0,*46
1496433996.71,10296,22.75,74178.5,0.91,-31.57,-31.79,0,*45
1496433997.98,10297,22.75,74178.0,0.91,-31.39,-31.57,0,*40
1496433999.26,10298,22.75,74178.5,0.91,-31.39,-31.61,0,*4A
1496434000.51,10299,22.75,74176.3,0.91,-31.29,-31.57,0,*4F
1496434001.74,10300,22.75,74178.0,0.89,-31.33,-31.51,0,*4A
1496434002.97,10301,22.75,74178.0,0.93,-31.45,-31.61,0,*42
1496434004.2,10302,22.75,74178.0,0.91,-31.45,-31.67,0,*45
1496434005.48,10303,22.75,74176.0,0.91,-31.23,-31.57,0,*47
1496434006.71,10304,22.75,74180.5,0.91,-31.45,-31.67,0,*43
1496434007.96,10305,22.75,74178.3,0.91,-31.57,-31.67,0,*41
1496434009.19,10306,22.75,74180.3,0.91,-31.45,-31.79,0,*4E
1496434010.47,10307,22.75,74176.8,0.91,-31.61,-31.85,0,*4A
1496434011.76,10308,22.75,74178.5,0.91,-31.57,-31.95,0,*41
1496434012.98,10309,22.75,74176.5,0.91,-31.67,-32.01,0,*4D
1496434014.21,10310,22.75,74180.5,0.91,-31.79,-32.01,0,*4A
1496434015.47,10311,22.75,74182.8,0.91,-31.79,-31.95,0,*45
1496434016.72,10312,22.75,74178.8,0.89,-31.73,-31.91,0,*41
1496434017.97,10313,22.75,74182.0,0.89,-31.73,-31.91,0,*40
1496434019.19,10314,22.75,74178.0,0.89,-31.67,-31.91,0,*42
1496434020.44,10315,22.75,74178.0,0.89,-31.51,-31.73,0,*4A
1496434021.69,10316,22.75,74184.0,0.91,-31.57,-31.79,0,*4C
1496434022.98,10317,22.75,74176.5,0.91,-31.61,-31.95,0,*4A
1496434024.23,10318,22.75,74178.8,0.89,-31.61,-31.91,0,*48
1496434025.46,10319,22.75,74178.0,0.91,-31.79,-32.01,0,*43
1496434026.71,10320,22.75,74182.3,0.89,-31.73,-32.07,0,*4C
1496434027.97,10321,22.75,74178.3,0.89,-31.85,-32.07,0,*44
1496434029.25,10322,22.75,74182.8,0.87,-31.73,-31.91,0,*4C
1496434030.52,10323,22.75,74178.8,0.87,-31.73,-31.91,0,*4D
1496434031.77,10324,22.75,74182.8,0.89,-31.51,-31.73,0,*48
1496434032.97,10325,22.75,74182.0,0.89,-31.45,-31.67,0,*49
1496434034.2,10326,22.75,74176.8,0.89,-31.45,-31.61,0,*4C
1496434035.42,10327,22.75,74178.5,0.89,-31.45,-31.73,0,*4E
1496434036.64,10328,22.75,74182.8,0.89,-31.51,-31.67,0,*41
1496434037.89,10329,22.75,74176.3,0.89,-31.61,-31.85,0,*4F
1496434039.14,10330,22.75,74178.5,0.87,-31.51,-31.79,0,*49
1496434040.34,10331,22.75,74182.3,0.89,-31.33,-31.67,0,*4D
1496434041.58,10332,22.75,74178.0,0.87,-31.33,-31.57,0,*43
1496434042.81,10333,22.75,74182.0,0.89,-31.33,-31.51,0,*4A
1496434044.08,10334,22.75,74178.0,0.91,-31.39,-31.61,0,*4D
1496434045.37,10335,22.75,74178.0,0.91,-31.11,-31.39,0,*4B
1496434046.6,10336,22.75,74178.3,0.89,-31.11,-31.45,0,*4A
1496434047.87,10337,22.75,74182.3,0.91,-31.23,-31.45,0,*43
1496434049.06,10338,22.75,74180.3,0.89,-31.33,-31.67,0,*44
1496434050.29,10339,22.75,74182.8,0.89,-31.33,-31.61,0,*43
1496434051.53,10340,22.75,74180.8,0.87,-31.39,-31.67,0,*4F
1496434052.73,10341,22.75,74182.3,0.89,-31.33,-31.67,0,*4A
1496434053.93,10342,22.75,74180.0,0.89,-31.45,-31.67,0,*48
1496434055.18,10343,22.75,74182.0,0.89,-31.51,-31.85,0,*40
1496434056.41,10344,22.75,74180.5,0.89,-31.45,-31.61,0,*48
1496434057.61,10345,22.75,74180.0,0.89,-31.17,-31.45,0,*48
1496434058.81,10346,22.75,74182.8,0.89,-31.17,-31.45,0,*4B
1496434060.01,10347,22.75,74180.0,0.89,-31.33,-31.67,0,*4C
1496434061.24,10348,22.75,74182.8,0.89,-31.33,-31.61,0,*45
1496434062.46,10349,22.75,74180.0,0.89,-31.33,-31.51,0,*47
1496434063.66,10350,22.75,74182.3,0.89,-31.29,-31.67,0,*41
1496434064.86,10351,22.75,74182.8,0.89,-31.45,-31.67,0,*4A
1496434066.11,10352,22.75,74182.0,0.91,-31.05,-31.39,0,*4F
1496434067.33,10353,22.75,74180.8,0.91,-31.29,-31.67,0,*4B
1496434068.58,10354,22.75,74182.5,0.89,-31.51,-31.73,0,*4F
1496434069.82,10355,22.75,74182.0,0.89,-31.51,-31.73,0,*4E
1496434071.02,10356,22.75,74182.8,0.89,-31.33,-31.67,0,*4C
1496434072.25,10357,22.75,74180.5,0.89,-31.45,-31.61,0,*4A
1496434073.53,10358,22.75,74180.8,0.91,-31.23,-31.39,0,*41
1496434074.82,10359,22.75,74184.8,0.91,-31.23,-31.39,0,*40
1496434076.08,10360,22.75,74180.0,0.91,-31.23,-31.45,0,*41
1496434077.3,10361,22.75,74180.3,0.89,-31.51,-31.67,0,*4C
1496434078.52,10362,22.75,74180.8,0.89,-31.29,-31.51,0,*45
1496434079.79,10363,22.75,74180.5,0.91,-31.23,-31.45,0,*42
1496434081.02,10364,22.75,74180.8,0.89,-31.29,-31.51,0,*43
1496434082.25,10365,22.75,74182.5,0.89,-31.11,-31.45,0,*4C
1496434083.45,10366,22.75,74184.3,0.89,-31.17,-31.33,0,*48
1496434084.71,10367,22.75,74180.0,0.91,-31.23,-31.45,0,*46
1496434085.95,10368,22.75,74182.5,0.89,-31.51,-31.73,0,*40
1496434087.2,10369,22.75,74182.3,0.87,-31.51,-31.79,0,*45
1496434088.45,10370,22.75,74182.8,0.89,-31.51,-31.85,0,*40
1496434089.7,10371,22.75,74184.0,0.87,-31.51,-31.79,0,*4C
1496434090.92,10372,22.75,74180.3,0.87,-31.33,-31.67,0,*44
1496434092.14,10373,22.75,74182.8,0.89,-31.33,-31.73,0,*4E
1496434093.42,10374,22.75,74180.3,0.87,-31.73,-31.95,0,*4B
1496434094.67,10375,22.75,74184.8,0.87,-31.67,-31.95,0,*4F
1496434095.92,10376,22.75,74180.5,0.87,-31.67,-31.95,0,*4C
1496434097.16,10377,22.75,74182.0,0.89,-31.11,-31.45,0,*4F
1496434098.43,10378,22.75,74182.8,0.87,-31.23,-31.57,0,*4C
1496434099.68,10379,22.75,74182.0,0.89,-31.51,-31.85,0,*49
1496434100.93,10380,22.75,74182.3,0.87,-31.67,-31.95,0,*45
1496434102.18,10381,22.75,74182.3,0.87,-31.51,-31.79,0,*43
1496434103.4,10382,22.75,74180.3,0.85,-31.67,-31.95,0,*45
1496434104.6,10383,22.75,74180.8,0.89,-31.33,-31.67,0,*44